Regional Weather Roundup
Issued by NWS

Home | Current Version | Previous Version | Graphics & Text | Print | Product List | Glossary On
Versions: 1 2 3 4 5 6 7 8 9 10 11 12 13 14 15 16 17 18 19 20 21 22 23 24 25 26 27 28 29 30 31 32 33 34 35 36 37 38 39 40 41 42 43 44 45 46 47 48 49 50
000
ASUS43 KIND 281709
RWRIN

WEATHER ROUNDUP FOR INDIANA
NATIONAL WEATHER SERVICE INDIANAPOLIS IN
1200 PM EST SUN DEC 28 2014

NOTE: "FAIR" INDICATES FEW OR NO CLOUDS BELOW 12,000 FEET WITH NO
SIGNIFICANT WEATHER AND/OR OBSTRUCTIONS TO VISIBILITY.

* - STATION DOES NOT REPORT WEATHER SUCH AS PRECIPITATION OR FOG.

+ - STATION NOT QUALITY CONTROLLED BY THE NATIONAL WEATHER SERVICE.
    USE DATA WITH CAUTION...ESPECIALLY DEWPOINT AND RELATIVE
    HUMIDITY OBSERVATIONS.

INZ001>003-010>013-019-020-281800-
NORTHWEST INDIANA

CITY           SKY/WX    TMP DP  RH WIND       PRES   REMARKS
GARY /AIRPORT/ PTSUNNY   30  19  64 SW7       30.20F WCI  23
KNOX *+        CLOUDY    30  23  74 W8        30.18F WCI  23
LA PORTE +     CLOUDY    32  26  77 NW6       30.17F WCI  26
MICHIGAN CITY+ CLOUDY    32  21  64 W3        30.18F
MONTICELLO +   CLOUDY    29  24  84 W7        30.19S WCI  21
RENSSELAER +   CLOUDY    30  27  86 W5        30.19F WCI  25
VALPARAISO     CLOUDY    29  23  78 W6        30.18F WCI  23

$$

LMZ046-743>745-281800-
SOUTHERN LAKE MICHIGAN

STATION/POSITION TIME  TEMP WIND        PRES
                       AIR  DIR/SP/G
                 (UTC) (F)  (DEG/KT/KT) (MB)
MICHIGAN CITY    1700   28  220/ 11/ 13   N/A

$$

INZ004-005-014>016-021>024-281800-
NORTH CENTRAL INDIANA

CITY           SKY/WX    TMP DP  RH WIND       PRES   REMARKS
GOSHEN         CLOUDY    33  25  72 W10       30.14F WCI  25
LOGANSPORT +   CLOUDY    30  27  86 W6        30.19F WCI  24
PERU/GRISSOM   CLOUDY    31  31 100 W8        30.16F WCI  23
ROCHESTER +    CLOUDY    34  30  86 W6        30.17F WCI  29
SOUTH BEND     CLOUDY    33  24  69 W9        30.17F WCI  25
WARSAW +       CLOUDY    32  27  80 W8        30.15F WCI  25

$$

INZ006>009-017-018-025>027-281800-
NORTHEAST INDIANA

CITY           SKY/WX    TMP DP  RH WIND       PRES   REMARKS
ANGOLA *+      MOSUNNY   34  25  69 NW9       30.11F WCI  26
AUBURN +       CLOUDY    34  25  69 NW8       30.13F WCI  27
FORT WAYNE     CLOUDY    34  28  79 NW8       30.15F WCI  27
HUNTINGTON +   CLOUDY    32  25  76 NW3       30.15F

$$

INZ028-029-035-036-043>045-051>053-281800-
WEST CENTRAL INDIANA

CITY           SKY/WX    TMP DP  RH WIND       PRES   REMARKS
GREENCASTLE +  CLOUDY    30  21  69 NW6       30.20S WCI  24
LAFAYETTE      CLOUDY    29  23  78 W6        30.20F WCI  23
TERRE HAUTE    CLOUDY    31  24  75 NW8       30.21F WCI  23

$$

INZ030>032-037>040-046>048-054>057-064-065-281800-
CENTRAL INDIANA

CITY           SKY/WX    TMP DP  RH WIND       PRES   REMARKS
CP ATTERBURY + CLOUDY    32  28  86 MISG      30.19F
COLUMBUS       CLOUDY    32  28  86 NW5       30.19F WCI  27
FRANKFORT +    CLOUDY    29  27  90 W8        30.20S WCI  21
INDIANAPOLIS   CLOUDY    30  26  85 NW7       30.17F WCI  23
-EAGLE CREEK   CLOUDY    30  26  85 NW7       30.18S WCI  23
KOKOMO *+      CLOUDY    30  27  86 W12       30.17S WCI  21
MARION +       CLOUDY    31  28  86 NW8       30.17S WCI  24
MT COMFORT *+  CLOUDY    32  25  74 NW6       30.17F WCI  26
SHELBYVILLE    CLOUDY    34  27  75 NW6       30.17S WCI  29
ZIONSVILLE +   CLOUDY    31  26  82 NW7       30.17F WCI  24

$$

INZ033-034-041-042-049-050-058-059-281800-
EAST CENTRAL INDIANA

CITY           SKY/WX    TMP DP  RH WIND       PRES   REMARKS
MUNCIE         CLOUDY    33  28  81 NW12      30.15F WCI  24

$$

INZ060-061-067>069-081>083-085>088-281800-
SOUTHWEST INDIANA

CITY           SKY/WX    TMP DP  RH WIND       PRES   REMARKS
EVANSVILLE     CLOUDY    35  28  75 N6        30.22F WCI  30
HUNTINGBURG *+ CLOUDY    34  27  75 NW8       30.21F WCI  27
WASHINGTON +   CLOUDY    33  27  79 N6        30.21F WCI  27

$$

INZ062-063-066-070>080-084-089>092-281800-
SOUTH CENTRAL AND SOUTHEAST INDIANA

CITY           SKY/WX    TMP DP  RH WIND       PRES   REMARKS
BLOOMINGTON    CLOUDY    32  28  85 N6        30.18F WCI  26
NORTH VERNON + CLOUDY    34  34 100 NW6       30.18  WCI  29

$$




USA.gov is the U.S. government's official web portal to all federal, state and local government web resources and services.